Winfield, KS

4:03 PM CST on December 16, 2017 (GMT -0600)
Strother

Weather History for KWLD - October, 2011

Change the Weather History Date:

Wednesday, October 19, 2011

  Actual Average Record
Temperature  
Mean Temperature 45 °F -  
Max Temperature 59 °F 68 °F 81 °F (2003)
Min Temperature 33 °F 46 °F 30 °F (2013)
Degree Days  
Heating Degree Days 20    
Moisture  
Dew Point 27 °F    
Average Humidity 53    
Maximum Humidity 85    
Minimum Humidity 28    
Precipitation  
Precipitation 0.00 in - - ()
Sea Level Pressure  
Sea Level Pressure 30.10 in    
Wind  
Wind Speed 10 mph (NNW)    
Max Wind Speed 26 mph    
Max Gust Speed 36 mph    
Visibility 10 miles    
Events      
Averages and records for this station are not official NWS values.
T = Trace of Precipitation, MM = Missing Value Source: NWS Daily Summary

Daily Weather History Graph

Daily Weather History Graph

Search for Another Location

Airport or City:

Trip Planner

Search our weather history database for the weather conditions in past years. The results will help you decide how hot, cold, wet, or windy it might be!

Date:

Astronomy

Oct. 19, 2011 Rise Set
Actual Time 7:39 AM CDT 6:46 PM CDT
Civil Twilight 7:13 AM CDT 7:12 PM CDT
Nautical Twilight 6:42 AM CDT 7:42 PM CDT
Astronomical Twilight 6:12 AM CDT 8:12 PM CDT
Moon No Moon Rise 2:07 PM CDT (10/19)
Length of Visible Light 11h 59m
Length of Day
11h 06m
Waning Gibbous, 54% of the Moon is Illuminated
Oct 19
Waning Gibbous
Oct 19
Last Quarter
Oct 26
New
Nov 2
First Quarter
Nov 10
Full

Hourly Weather History & Observations

Time (CDT) Temp. Windchill Dew Point Humidity Pressure Visibility Wind Dir Wind Speed Gust Speed Precip Events Conditions
12:54 AM 39.0 °F 34.8 °F 28.9 °F 67% 30.09 in 10.0 mi NW 5.8 mph - N/A   Clear
2:54 AM 36.0 °F 30.3 °F 28.9 °F 76% 30.09 in 10.0 mi WNW 6.9 mph - N/A   Clear
3:54 AM 37.0 °F 31.6 °F 30.0 °F 76% 30.09 in 10.0 mi WNW 6.9 mph - N/A   Clear
4:54 AM 37.0 °F 31.0 °F 28.9 °F 73% 30.09 in 10.0 mi WNW 8.1 mph - N/A   Clear
5:54 AM 37.9 °F 32.7 °F 30.0 °F 73% 30.10 in 10.0 mi WNW 6.9 mph - N/A   Clear
6:54 AM 34.0 °F 29.8 °F 28.9 °F 82% 30.10 in 10.0 mi NW 4.6 mph - N/A   Clear
7:54 AM 33.1 °F 26.9 °F 28.9 °F 85% 30.11 in 10.0 mi NW 6.9 mph - N/A   Clear
8:54 AM 42.1 °F 35.7 °F 32.0 °F 67% 30.14 in 10.0 mi NNW 11.5 mph - N/A   Clear
9:54 AM 48.0 °F - 28.0 °F 46% 30.15 in 10.0 mi North 15.0 mph 25.3 mph N/A   Clear
10:54 AM 50.0 °F - 24.1 °F 36% 30.16 in 10.0 mi North 21.9 mph 27.6 mph N/A   Clear
11:54 AM 53.1 °F - 24.1 °F 32% 30.15 in 10.0 mi North 19.6 mph 33.4 mph N/A   Clear
12:54 PM 55.9 °F - 25.0 °F 30% 30.12 in 10.0 mi NNW 26.5 mph 35.7 mph N/A   Clear
1:54 PM 57.0 °F - 26.1 °F 30% 30.10 in 10.0 mi NNW 26.5 mph 34.5 mph N/A   Clear
2:54 PM 57.0 °F - 25.0 °F 29% 30.08 in 10.0 mi North 25.3 mph 33.4 mph N/A   Clear
3:54 PM 57.0 °F - 25.0 °F 29% 30.07 in 10.0 mi NNW 16.1 mph 29.9 mph N/A   Clear
4:54 PM 57.0 °F - 24.1 °F 28% 30.06 in 10.0 mi NNW 15.0 mph 25.3 mph N/A   Clear
5:54 PM 55.0 °F - 24.1 °F 30% 30.07 in 10.0 mi North 17.3 mph 23.0 mph N/A   Clear
6:54 PM 48.9 °F - 25.0 °F 39% 30.07 in 10.0 mi North 9.2 mph - N/A   Clear
7:54 PM 46.0 °F - 25.0 °F 44% 30.08 in 10.0 mi Calm Calm - N/A   Clear
8:54 PM 42.1 °F 40.2 °F 27.0 °F 55% 30.09 in 10.0 mi NW 3.5 mph - N/A   Clear
9:54 PM 43.0 °F - 26.1 °F 51% 30.09 in 10.0 mi Calm Calm - N/A   Clear
10:54 PM 36.0 °F - 27.0 °F 70% 30.09 in 10.0 mi Calm Calm - N/A   Clear
11:54 PM 35.1 °F - 26.1 °F 70% 30.09 in 10.0 mi Calm Calm - N/A   Clear